Flag for South Africa Weather past 2 weeks in Pretoria, South Africa

Now
61 °F

Refreshingly cool.


Feels Like: 61 °F
Forecast: 41 / 61 °F
Wind: 8 mph from Southwest

Location: Waterkloof Lmb

Current Time: Jul 30, 2015 at 6:55:07 PM

Latest Report: Jul 30, 2015 at 6:00 PM


Visibility: N/A

Pressure: 30.12 "Hg (25.71 "Hg at 1338m altitude)

Humidity: 11%

Dew point: 5 °F

Location of PretoriaLocation

Historic Weather in Pretoria — Graph

°F

Pretoria temperature yesterday

Maximum temperature yesterday: 70 °F (at 3:00 PM)
Minimum temperature yesterday: 37 °F (at 6:00 AM)
Average temperature yesterday: 55 °F

Past Weeks' High & Low Weather Summary

 TemperatureHumidityPressure
High73 °F (Jul 30, 2:00 PM)100% (Jul 26, 7:00 AM)30.48 "Hg (Jul 26, 7:00 AM)
Low32 °F (Jul 18, 5:00 AM)9% (Jul 18, 1:00 PM)30.04 "Hg (Jul 16, 5:00 PM)
Average53 °F47%30.26 "Hg
* Reported Jul 15 5:00 PM — Jul 30 5:00 PM, Pretoria, Weather by CustomWeather, © 2015

Note: Actual official high and low records may vary slightly from our data, if they occured in-between our weather recording intervals... More about our weather records

Advertising

Pretoria weather history for previous 24 hours

 ConditionsComfort  
Time TempWeatherWind HumidityBarometerVisibility
5:00 PM
Thu, Jul 30
66 °FMild.10 mph9%30.09 "HgN/A
4:00 PM72 °FMild.9 mph11%30.09 "HgN/A
3:00 PM72 °FMild.13 mph10%30.09 "HgN/A
2:00 PM73 °FMild.12 mph9%30.09 "HgN/A
1:00 PM70 °FMild.9 mph11%30.12 "HgN/A
12:00 PM68 °FMild.6 mph18%30.15 "HgN/A
11:00 AM64 °FMild.3 mph26%30.18 "HgN/A
10:00 AM61 °FRefreshingly cool.1 mph29%30.18 "HgN/A
9:00 AM55 °FRefreshingly cool.3 mph41%30.18 "HgN/A
8:00 AM48 °FCool.2 mph62%30.15 "HgN/A
7:00 AM41 °FQuite cool.2 mph70%30.12 "HgN/A
6:00 AM43 °FQuite cool.2 mph66%30.12 "HgN/A
5:00 AM41 °FQuite cool.1 mph70%30.12 "HgN/A
4:00 AM43 °FQuite cool.1 mph66%30.12 "HgN/A
3:00 AM43 °FQuite cool.1 mph71%30.12 "HgN/A
2:00 AM45 °FQuite cool.1 mph61%30.12 "HgN/A
1:00 AM46 °FCool.1 mph62%30.12 "HgN/A
12:00 AM54 °FCool.5 mph44%30.12 "HgN/A
11:00 PM
Wed, Jul 29
48 °FCool.2 mph54%30.15 "HgN/A
10:00 PM50 °FCool.1 mph50%30.15 "HgN/A
9:00 PM50 °FCool.1 mph50%30.15 "HgN/A
7:00 PM59 °FRefreshingly cool.No wind36%30.15 "HgN/A
6:00 PM59 °FRefreshingly cool.3 mph36%30.15 "HgN/A
Weather by CustomWeather, © 2015

See weather overviewHow to use our weather pages